Location: Bottenau
(48.5138°N, 8.0462°E)
Time: 15:32:22
(UTC+00:00)

Landsat 7 - Pass Details

Date: 18 April 2021
Orbit: 701 x 703 km, 98.0° (Epoch: 07 May)

Event Time Altitude Azimuth Distance (km) Brightness Sun altitude
Exits shadow 20:20:36 23° 175° (S) 1,493 5.1 -17.6°
Maximum altitude 20:23:37 74° 257° (WSW) 734 3.9 -17.9°
Drops below altitude 10° 20:28:24 10° 343° (NNW) 2,180 7.2 -18.5°
Sets 20:30:41 0° 345° (NNW) 3,103 8.1 -18.8°
